Overview Statistics Trail Chart Weather Telemetry Raw packets
 

This is the latest recevied weather packets stored in our database for station/object K6CEG. If no packets are shown the sender has not sent any weather packets the latest 10 day(s).

<< 16 17 18 19 20 21 22 >>
Time Temp. Humidity Pressure Rain* Wind** Luminosity Snow
1788568686 27.78° C 41% 1014.1 hPa 0 mm - 24 W/m² -
1788568382 27.78° C 42% 1014.1 hPa 0 mm - 25 W/m² -
1788568078 27.78° C 40% 1014.2 hPa 0 mm - 26 W/m² -
1788567777 28.33° C 39% 1014.3 hPa 0 mm - 26 W/m² -
1788567472 27.78° C 39% 1014.1 hPa 0 mm - 46 W/m² -
1788567171 28.33° C 39% 1014.1 hPa 0 mm - 215 W/m² -
1788566867 28.89° C 40% 1014.1 hPa 0 mm - 238 W/m² -
1788566563 28.89° C 40% 1014.2 hPa 0 mm - 288 W/m² -
1788566258 29.44° C 38% 1014 hPa 0 mm - 246 W/m² -
1788565958 29.44° C 37% 1013.9 hPa 0 mm - 77 W/m² -
1788565675 29.44° C 36% 1014.1 hPa 0 mm - 271 W/m² -
1788565348 28.89° C 37% 1013.8 hPa 0 mm - 33 W/m² -
1788565044 28.33° C 39% 1014 hPa 0 mm - 32 W/m² -
1788564740 28.33° C 41% 1014.1 hPa 0 mm - 32 W/m² -
1788564437 28.89° C 41% 1014.2 hPa 0 mm - 34 W/m² -
1788564133 28.89° C 41% 1014.1 hPa 0 mm - 34 W/m² -
1788563828 28.33° C 42% 1014.2 hPa 0 mm - 35 W/m² -
1788563523 28.89° C 42% 1014.3 hPa 0 mm - 35 W/m² -
1788563223 28.33° C 43% 1014 hPa 0 mm - 35 W/m² -
1788562917 28.33° C 44% 1014.3 hPa 0 mm - 36 W/m² -
1788562616 28.33° C 44% 1014.2 hPa 0 mm - 114 W/m² -
1788562311 28.33° C 44% 1014.4 hPa 0 mm - 39 W/m² -
1788562005 28.33° C 44% 1014.3 hPa 0 mm - 40 W/m² -
1788561705 28.89° C 45% 1014.2 hPa 0 mm - 42 W/m² -
1788561404 28.89° C 45% 1014.1 hPa 0 mm - 42 W/m² -

* Rain latest hour (hover to see other rain measurements)
** Current wind speed in m/s (hover to see current wind gust speed)